Home > Weather > Würzburg > Past weeks

Flag for Germany Past Weather in Würzburg, Bavaria, Germany — Yesterday and Last 2 Weeks

Now
48 °F

Rain. Fog.


Feels Like: 44 °F
Forecast: 44 / 67 °F
Wind: 9 mph from West

Location: Niederstetten

Current Time: May 24, 2016 at 8:10:13 AM

Latest Report: May 24, 2016 at 7:20 AM


Visibility: 3 mi

Pressure: 29.89 "Hg

Humidity: 94%

Dew Point: 46 °F

Location of WürzburgLocation

Past Weather in Würzburg — Graph

°F

Würzburg Temperature Yesterday

Maximum temperature yesterday: 55 °F (at 12:20 AM)
Minimum temperature yesterday: 50 °F (at 2:20 PM)
Average temperature yesterday: 52 °F

High & Low Weather Summary for the Past Weeks

 TemperatureHumidityPressure
High77 °F (May 22, 1:20 PM)100% (May 23, 11:20 PM)30.15 "Hg (May 23, 11:20 PM)
Low37 °F (May 15, 5:20 AM)38% (May 22, 12:20 PM)29.45 "Hg (May 12, 7:20 PM)
Average54 °F72%29.88 "Hg
* Reported May 9 6:20 AM — May 24 6:20 AM, Würzburg, Weather by CustomWeather, © 2016

Note: Actual official high and low records may vary slightly from our data, if they occured in-between our weather recording intervals... More about our weather records

Advertising

Würzburg Weather History for the Previous 24 Hours

Scroll right to see more
 ConditionsComfort  
Time TempWeatherWind HumidityBarometerVisibility
6:20 AM
Tue, May 24
48 °FRain. Fog.8 mph94%29.89 "Hg2 mi
5:20 AM48 °FRain. Fog.9 mph94%29.89 "Hg2 mi
4:20 AM48 °FRain. Fog.7 mph100%29.89 "Hg2 mi
3:20 AM48 °FLight rain. Fog.7 mph100%29.89 "Hg3 mi
2:20 AM50 °FLight rain. Low clouds.7 mph94%29.89 "Hg4 mi
1:20 AM50 °FLight rain. Passing clouds.7 mph94%29.89 "Hg6 mi
12:20 AM50 °FMostly cloudy.8 mph94%29.89 "Hg5 mi
11:20 PM
Mon, May 23
50 °FDrizzle. Fog.6 mph100%29.89 "Hg3 mi
10:20 PM50 °FDrizzle. Fog.7 mph94%29.92 "Hg3 mi
9:20 PM50 °FDrizzle. Fog.9 mph94%29.89 "Hg3 mi
8:20 PM50 °FMostly cloudy.7 mph94%29.89 "Hg5 mi
7:20 PM50 °FMostly cloudy.9 mph94%29.89 "HgN/A
6:20 PM50 °FMostly cloudy.9 mph94%29.89 "HgN/A
5:20 PM50 °FLight rain. Mostly cloudy.10 mph94%29.89 "HgN/A
5:00 PM50 °FLight rain. Mostly cloudy.10 mph94%29.89 "HgN/A
4:20 PM50 °FLight rain. Mostly cloudy.10 mph94%29.89 "HgN/A
3:20 PM50 °FLight rain. Mostly cloudy.12 mph94%29.89 "Hg5 mi
2:20 PM50 °FRain. Partly sunny.9 mph94%29.89 "Hg4 mi
1:48 PM52 °FRain. Partly sunny.9 mph88%29.89 "Hg5 mi
1:20 PM52 °FLight rain. Partly sunny.10 mph88%29.89 "HgN/A
12:20 PM52 °FLight rain. Broken clouds.8 mph88%29.89 "HgN/A
11:20 AM52 °FLight rain. Broken clouds.8 mph88%29.89 "HgN/A
10:20 AM52 °FBroken clouds.8 mph82%29.86 "HgN/A
9:20 AM52 °FPartly sunny.8 mph82%29.86 "HgN/A
8:20 AM52 °FPartly sunny.12 mph82%29.86 "HgN/A
Weather by CustomWeather, © 2016

See weather overviewHow to use our weather pages